Location: Namasale
(1.5000°N, 32.6167°E)
Time: 21:07:16
(UTC+00:00)

STARLINK-1071 - Pass Details

Date: 09 April 2020
Orbit: 548 x 551 km, 53.0° (Epoch: 02 June)

Event Time Altitude Azimuth Distance (km) Brightness Sun altitude
Rises 16:35:03 0° 323° (NW) 2,845 8.0 -10.7°
Reaches altitude 10° 16:37:21 10° 322° (NW) 1,933 7.1 -11.3°
Maximum altitude 16:41:46 76° 236° (WSW) 610 3.9 -12.4°
Drops below altitude 10° 16:46:05 10° 150° (SSE) 1,893 6.0 -13.4°
Enters shadow 16:46:30 - 150° (SSE) 2,057 6.2 -13.5°
